Location: Unspecified
(0.0000°N, 0.0000°E)
Time: 13:13:13
(UTC+00:00)

JUGNU - Pass Details

Date: 17 February 2020
Orbit: 836 x 864 km, 20.0° (Epoch: 01 April)

Event Time Altitude Azimuth Distance (km) Brightness Sun altitude
Rises 18:58:07 0° 312° (NW) 3,364 ? -10.8°
Reaches altitude 10° 19:01:14 10° 327° (NNW) 2,429 ? -11.5°
Maximum altitude 19:05:40 22° 17° (NNE) 1,730 ? -12.6°
Enters shadow 19:08:33 16° 54° (NE) 2,059 ? -13.3°
